Probability
0 0 0 0 0 0 0 0 0 0 0 0 0 0 0 0 0 0 0 0 0 0 0 0 0 0 0 0 0 0 0 0 0 0 0 0 0 0 0 0 0 0 0
0 0 0 0 0 0 0 0 0 0 0 0 0 0 0 0 0 0 0 0 0 0 0 0 0 0 0 0 0 0 0 0 0 0 0 0 0 0 0 0 0 0 0
0 0 0 0 0 0 0 0 0 0 0 0 0 0 0 0 0 0 0 0 0 0 0 0 0 0 0 0 0 0 0 0 0 0 0 0 0 0 0 0 0 0 0
0 0 0 0 0 0 0 0 0 0 0 0 0 0 0 0 0 0 0 0 0 0 0 0 0 0 0 0 0 0 0 0 0 0 0 0 0 0 0 0 0 0 0
0 0 0 0 0 0 0 0 0 0 0 0 0 0 0 0 0 0 0 0 0 0 0 1 1 0 0 0 0 0 0 0 0 0 0 0 0 0 0 0 0 0 0
0 0 0 0 0 0 0 0 0 0 0 0 0 0 0 0 0 0 0 0 0 0 1 2 2 1 1 0 0 0 0 0 0 0 0 0 0 0 0 0 0 0 0
0 0 0 0 0 0 0 0 0 0 0 0 0 0 0 0 0 0 0 0 0 0 2 3 3 3 2 1 1 1 0 0 0 0 0 0 0 0 0 0 0 0 0
0 0 0 0 0 0 0 0 0 0 0 0 0 0 0 0 0 0 0 0 0 0 1 2 3 3 3 3 2 2 1 0 0 0 0 0 0 0 0 0 0 0 0
0 0 0 0 0 0 0 0 0 0 0 0 0 0 0 0 0 0 0 0 0 0 0 1 2 3 3 3 3 3 3 1 0 0 0 0 0 0 0 0 0 0 0
0 0 0 0 0 0 0 0 0 0 0 0 0 0 0 0 0 0 0 0 0 0 0 0 1 1 2 3 3 4 4 3 2 0 0 0 0 0 0 0 0 0 0
0 0 0 0 0 0 0 0 0 0 0 0 0 0 0 0 0 0 0 0 0 0 0 0 0 0 1 2 3 3 4 4 4 2 1 0 0 0 0 0 0 0 0
0 0 0 0 0 0 0 0 0 0 0 0 0 0 0 0 0 0 0 0 0 0 0 0 0 0 0 1 2 3 3 4 4 4 3 1 0 0 0 0 0 1 1
0 0 0 0 0 0 0 0 0 0 0 0 0 0 0 0 0 0 0 0 0 0 0 0 0 0 0 0 1 2 3 3 3 4 5 3 1 0 0 0 0 1 2
0 0 0 0 0 0 0 0 0 0 0 0 0 0 0 0 0 0 0 0 0 0 0 0 0 0 0 0 0 1 2 3 3 4 5 4 3 1 0 0 0 1 2
0 0 0 0 0 0 0 0 0 0 0 0 0 0 0 0 0 0 0 0 0 0 0 0 0 0 0 0 0 0 1 2 3 3 4 4 3 1 0 0 0 1 2
0 0 0 0 0 0 0 0 0 0 0 0 0 0 0 0 0 0 0 0 0 0 0 0 0 0 0 0 0 0 0 1 3 3 3 3 1 1 0 0 0 0 1
0 0 0 0 0 0 0 0 0 0 0 0 0 0 0 0 0 0 0 0 0 0 0 0 0 0 0 0 0 0 0 1 2 2 2 2 1 0 0 0 0 0 0
0 0 0 0 0 0 0 0 0 0 0 0 0 0 0 0 0 0 0 0 0 0 0 0 0 0 0 0 0 0 0 0 1 1 1 1 0 0 0 0 0 0 0
0 0 0 0 0 0 0 0 0 0 0 0 0 0 0 0 0 0 0 0 0 0 0 0 0 0 0 0 0 0 0 0 0 0 0 0 0 0 0 0 0 0 0
0 0 0 0 0 0 0 0 0 0 0 0 0 0 0 0 0 0 0 0 0 0 0 0 0 0 0 0 0 0 0 0 0 0 0 0 0 0 0 0 0 0 0
0 0 0 0 0 0 0 0 0 0 0 0 0 0 0 0 0 0 0 0 0 0 0 0 0 0 0 0 0 0 0 0 0 0 0 0 0 0 0 0 0 0 0
0 0 0 0 0 0 0 0 0 0 0 0 0 0 0 0 0 0 0 0 0 0 0 0 0 0 0 0 0 0 0 0 0 0 0 0 0 0 0 0 0 0 0
0 0 0 0 0 0 0 0 0 0 0 0 0 0 0 0 0 0 0 0 0 0 0 0 0 0 0 0 0 0 0 0 0 0 0 0 0 0 0 0 0 0 0
0 0 0 0 0 0 0 0 0 0 0 0 0 0 0 0 0 0 0 0 0 0 0 0 0 0 0 0 0 0 0 0 0 0 0 0 0 0 0 0 0 0 0
0 0 0 0 0 0 0 0 0 0 0 0 0 0 0 0 0 0 0 0 0 0 0 0 0 0 0 0 0 0 0 0 0 0 0 0 0 0 0 0 0 0 0
0 0 0 0 0 0 0 0 0 0 0 0 0 0 0 0 0 0 0 0 0 0 0 0 0 0 0 0 0 0 0 0 0 0 0 0 0 0 0 0 0 0 0
Wind_Speed
12 9 9 9 8 9 10 11 11 11 9 7 8 8 9 8 8 8 9 11 10 11 10 8 8 8 8 8 8 7 7 6 3 3 5 6 8 10 9 8 8 9 9
10 9 8 8 9 10 10 10 11 11 11 10 8 6 6 6 7 6 8 11 11 11 10 11 9 9 8 9 9 8 6 5 5 4 3 5 4 5 7 7 8 9 6
14 11 9 8 8 9 10 10 11 11 11 11 5 4 3 2 4 7 9 11 11 11 11 11 10 9 9 9 10 10 10 8 6 7 6 5 5 4 3 5 6 6 6
12 11 9 8 8 9 8 9 10 10 9 9 9 10 10 10 10 8 7 7 10 11 11 11 11 10 9 10 10 10 9 9 8 6 8 8 4 4 5 3 3 5 7
12 11 10 9 8 8 7 7 8 8 8 9 11 11 11 10 6 5 6 8 8 10 11 11 11 11 10 10 10 10 10 9 10 8 5 8 8 8 8 9 5 4 5
10 10 8 6 6 5 5 5 6 7 7 9 10 12 13 11 8 7 7 7 6 7 10 11 11 11 10 11 11 10 11 11 11 10 8 7 7 7 9 11 9 8 5
9 8 7 6 5 4 4 4 5 6 6 7 8 10 11 11 11 9 8 7 6 7 9 10 10 11 11 11 10 10 11 12 12 12 10 10 10 7 7 10 10 9 6
6 6 5 5 4 3 3 3 4 5 5 6 7 7 7 6 6 7 6 6 6 7 6 8 9 10 10 10 10 10 11 10 12 13 12 10 10 9 10 9 9 11 9
5 4 4 3 3 2 2 2 3 3 3 4 5 5 6 6 6 5 5 4 4 4 4 6 7 8 9 10 9 9 10 10 11 12 12 11 9 9 9 9 9 11 13
4 3 2 2 1 1 1 0 1 1 1 1 2 3 4 5 4 3 3 3 4 3 4 5 6 7 8 9 9 9 9 10 10 9 11 12 9 9 9 9 9 10 12
4 3 2 0 0 1 1 1 1 1 1 1 0 1 1 2 2 2 3 3 3 4 5 5 6 7 8 8 9 10 9 11 11 10 11 12 10 9 8 8 9 10 10
2 1 0 1 2 2 2 2 2 2 1 1 1 0 0 0 0 1 2 3 4 4 5 5 5 6 7 7 8 10 10 10 11 11 11 12 9 11 9 9 10 10 10
1 0 1 1 1 2 2 2 2 2 2 2 1 1 1 1 1 2 2 3 3 3 3 4 5 6 7 7 8 9 10 10 11 11 12 12 11 12 10 10 10 9 9
3 1 1 1 1 1 1 1 2 2 2 2 2 2 2 2 2 2 3 3 3 4 4 4 5 6 7 7 7 8 9 10 11 11 11 11 11 12 11 10 11 9 10
3 3 2 1 1 2 2 2 2 2 2 2 2 2 3 3 3 3 4 4 4 4 4 5 5 5 5 5 6 7 9 10 10 10 11 11 12 14 12 10 9 9 10
6 4 3 2 1 0 1 1 1 2 2 2 2 3 3 3 4 4 4 4 4 4 4 5 5 6 5 7 9 8 8 9 10 10 10 10 11 12 14 15 15 14 13
7 6 4 3 2 1 0 0 1 2 3 3 3 3 3 3 3 4 4 4 5 5 5 5 6 7 8 9 10 10 9 9 9 9 9 8 7 9 10 12 14 15 17
5 4 3 2 1 1 1 1 2 2 3 3 3 4 4 4 4 4 4 5 5 5 5 5 6 7 8 10 11 11 8 9 9 8 8 9 9 8 9 10 11 12 12
5 4 3 2 1 2 2 2 2 2 2 3 3 4 4 4 5 5 5 5 5 5 5 5 6 7 8 11 12 11 7 7 8 8 8 8 9 10 10 10 11 11 10
4 3 3 3 3 2 2 2 2 2 2 3 3 3 3 4 4 5 5 5 5 5 6 6 6 7 8 11 12 11 6 7 7 7 6 8 10 11 10 9 9 11 10
4 4 5 4 3 2 2 2 2 2 3 3 3 4 4 4 4 5 5 5 5 5 5 6 6 5 6 10 12 12 6 7 7 7 6 6 10 12 11 10 9 11 10
4 4 4 3 2 2 2 2 1 2 3 3 3 4 4 4 3 4 4 5 5 5 6 6 6 4 5 7 9 12 11 10 8 7 7 7 12 13 13 10 10 11 9
5 4 4 3 2 2 2 2 1 2 3 3 3 3 4 3 3 4 4 4 4 4 5 5 6 6 5 6 10 11 12 12 8 7 11 12 14 13 10 9 10 7 4
4 4 4 3 1 2 2 1 1 1 1 2 3 3 3 4 3 3 3 3 4 4 5 5 6 7 6 5 6 6 7 8 8 7 9 11 11 9 8 7 6 4 4
3 3 3 3 2 1 2 2 2 1 1 1 3 3 3 3 4 4 3 4 4 4 5 5 5 6 7 8 13 10 8 7 7 9 7 6 6 6 5 4 4 4 4
3 3 3 3 2 1 1 2 2 2 1 1 2 2 3 3 3 4 5 6 6 9 9 9 9 7 10 15 15 15 15 14 13 8 6 6 6 6 6 6 6 5 5
Wind_Direction
249 247 240 234 230 225 220 218 216 213 201 199 204 210 219 218 216 217 215 212 211 207 209 214 210 207 215 219 215 217 224 229 205 243 272 263 245 245 244 239 239 240 235
256 252 242 230 225 226 224 221 219 214 204 206 203 203 204 212 214 212 214 213 213 210 211 214 214 211 217 220 217 214 222 221 190 204 250 288 293 258 243 238 238 241 234
246 251 246 233 225 227 225 222 220 217 212 206 192 183 182 198 205 213 218 216 213 212 214 215 215 215 215 223 220 216 222 232 213 203 209 238 258 298 277 243 238 239 235
243 245 243 241 232 230 227 223 221 217 214 202 198 198 207 218 221 217 217 213 210 214 216 218 217 219 220 225 223 218 221 226 232 214 218 228 220 250 293 276 247 238 235
239 240 239 237 236 233 227 224 221 219 212 202 204 206 217 226 226 211 213 215 213 215 217 218 220 223 224 226 225 221 221 223 231 225 212 226 233 231 253 275 272 255 236
239 241 245 244 246 245 233 225 218 222 214 206 206 209 217 222 221 219 221 221 219 218 219 220 222 225 226 227 227 226 225 228 230 231 223 215 221 224 234 255 266 268 253
233 236 244 248 251 250 235 222 211 223 217 207 209 214 219 220 222 223 225 224 223 224 224 220 225 228 230 231 227 227 229 229 230 233 233 230 233 228 231 249 263 267 266
233 237 240 239 239 240 232 217 209 219 214 206 211 214 217 219 227 229 228 226 228 231 229 222 227 231 233 234 231 231 232 231 232 235 235 237 236 232 230 238 254 269 269
237 238 241 239 237 236 231 213 207 220 220 212 211 211 214 218 227 231 227 233 240 243 237 232 233 235 236 236 236 237 237 235 235 237 236 238 239 236 235 235 236 253 272
243 245 245 252 269 268 275 238 170 190 246 226 214 214 217 222 231 233 236 242 249 250 248 243 242 242 241 240 239 242 242 240 240 238 238 239 240 238 234 234 235 237 252
234 237 250 291 23 36 44 53 54 61 40 20 354 199 216 217 216 229 245 252 257 255 253 253 250 248 247 244 243 245 244 244 246 244 244 246 244 244 241 237 237 239 242
217 211 77 46 38 39 40 47 42 48 31 25 56 55 30 91 220 259 272 273 269 266 264 264 262 259 256 252 248 250 248 247 248 248 246 248 246 245 245 242 242 243 240
179 108 53 34 22 21 31 42 35 25 20 44 63 49 26 13 327 306 308 309 302 299 296 285 274 271 266 261 256 254 253 251 251 250 249 250 246 248 246 244 246 245 245
192 203 252 289 337 360 21 32 22 20 31 47 56 46 18 360 340 331 328 321 314 307 302 295 287 282 277 271 267 264 262 259 257 254 252 251 248 249 250 249 248 249 249
217 220 229 262 330 357 5 16 12 18 35 53 50 25 7 5 1 353 341 331 326 317 309 303 298 294 286 285 288 280 273 268 266 261 256 253 251 250 250 251 251 249 251
220 218 217 223 230 259 345 359 8 16 33 49 37 19 14 12 5 350 338 333 328 320 315 308 302 298 294 300 297 292 284 276 271 271 268 263 252 253 250 249 249 246 248
217 210 208 209 210 210 138 13 5 30 47 45 29 15 7 3 354 347 345 339 331 325 318 311 306 297 294 303 300 292 283 279 275 273 275 274 269 260 258 255 252 249 247
220 210 195 190 192 119 74 52 38 41 46 39 24 12 4 356 353 352 347 339 331 324 317 315 311 306 306 316 317 309 284 278 279 278 278 279 279 271 268 267 263 258 253
205 192 175 163 127 82 63 76 62 51 43 25 11 359 354 351 349 347 343 337 332 328 322 319 319 316 315 322 321 320 300 288 286 283 280 278 280 281 277 272 272 273 271
166 155 138 124 119 90 69 77 63 45 16 354 347 347 351 347 342 338 334 332 330 324 322 318 318 314 312 320 323 323 309 303 302 299 291 283 285 291 286 276 276 277 279
149 137 132 128 124 102 99 97 76 31 348 344 348 350 349 346 342 338 334 329 326 323 323 318 316 314 313 320 326 326 318 310 307 305 304 303 306 304 301 292 281 278 284
137 131 128 123 108 98 107 99 54 4 353 351 350 349 348 346 348 340 333 331 328 325 325 324 322 322 322 323 327 329 324 319 307 303 305 306 309 307 305 299 294 294 291
136 125 124 114 79 65 86 102 22 4 357 354 346 339 339 344 346 338 333 333 331 326 326 328 325 325 327 322 325 325 325 324 313 305 305 307 310 309 306 301 299 297 292
132 129 128 124 93 48 50 54 21 9 -0 345 334 333 338 341 343 338 333 329 327 326 324 324 321 320 320 321 327 325 324 323 317 313 312 310 309 306 303 307 307 299 289
118 123 131 131 116 61 32 3 355 357 355 344 340 338 343 337 333 335 326 319 308 308 308 305 305 310 313 321 326 328 323 322 318 319 316 319 323 322 319 316 312 308 304
104 104 108 114 98 62 16 345 341 338 331 343 346 335 332 331 332 331 326 323 314 318 316 312 310 306 312 318 323 324 323 323 325 324 316 317 317 315 316 315 313 310 302